BIPCOM Weather Reports


time (UTC)temp
F
wind
direction
speed
knots
gust
knots
rain 1hr
in
rain 24hr
in
rain mn
in
humidity
%
barometer
mb
20260506051034 50 17 16.5 20.0 0.00 0.00 0.00 83 1010.9
20260506050524 50 31 17.4 20.0 0.00 0.00 0.00 82 1010.9
20260506045055 51 5 16.5 19.1 0.00 0.00 0.00 81 1010.8
20260506044638 51 26 15.6 18.2 0.00 0.00 0.00 80 1010.7
20260506044036 51 30 14.8 18.2 0.00 0.00 0.00 80 1010.7
20260506043514 51 18 15.6 18.2 0.00 0.00 0.00 80 1010.6
20260506043004 52 26 15.6 17.4 0.00 0.00 0.00 80 1010.6
20260506042556 52 28 13.9 18.2 0.00 0.00 0.00 79 1010.6
20260506042046 52 41 15.6 18.2 0.00 0.00 0.00 80 1010.6
20260506041536 52 34 13.9 17.4 0.00 0.00 0.00 80 1010.5
20260506041030 52 41 14.8 17.4 0.00 0.00 0.00 79 1010.6
20260506040515 52 43 14.8 17.4 0.00 0.00 0.00 80 1010.5
20260506040006 52 33 13.0 16.5 0.00 0.00 0.00 80 1010.6
20260506035558 52 38 13.9 16.5 0.00 0.00 0.00 80 1010.6
20260506035047 52 42 13.9 15.6 0.00 0.00 0.00 80 1010.5
20260506034602 52 30 13.0 16.5 0.00 0.00 0.00 80 1010.6
20260506034015 52 28 13.9 16.5 0.00 0.00 0.00 80 1010.6
20260506033505 53 32 13.9 16.5 0.00 0.00 0.00 80 1010.6
20260506033104 53 35 13.0 15.6 0.00 0.00 0.00 80 1010.6
20260506032548 53 36 13.9 15.6 0.00 0.00 0.00 80 1010.6
20260506032037 53 43 13.9 15.6 0.00 0.00 0.00 79 1010.6
20260506031528 53 45 13.0 14.8 0.00 0.00 0.00 79 1010.6
20260506031016 53 38 12.2 14.8 0.00 0.00 0.00 79 1010.6
20260506030507 53 34 12.2 14.8 0.00 0.00 0.00 79 1010.6
20260506030059 53 41 13.0 17.4 0.00 0.00 0.00 78 1010.6
20260506025548 53 57 9.6 17.4 0.00 0.00 0.00 77 1010.7
20260506025041 54 66 10.4 17.4 0.00 0.00 0.00 77 1010.6
20260506024527 54 84 13.9 17.4 0.00 0.00 0.00 77 1010.6
20260506024006 54 84 14.8 17.4 0.00 0.00 0.00 76 1010.5
20260506023555 54 78 14.8 17.4 0.00 0.00 0.00 76 1010.5
20260506023105 54 80 13.9 15.6 0.00 0.00 0.00 77 1010.5
20260506022535 54 88 10.4 13.9 0.00 0.00 0.00 77 1010.6
20260506022026 54 82 10.4 13.0 0.00 0.00 0.00 78 1010.6
20260506021516 54 80 9.6 13.0 0.00 0.00 0.00 78 1010.6
20260506021005 54 56 10.4 13.9 0.00 0.00 0.00 78 1010.5
20260506020557 54 55 10.4 13.9 0.00 0.00 0.00 78 1010.5
20260506020048 54 52 11.3 13.9 0.00 0.00 0.00 78 1010.5
20260506015538 54 55 11.3 13.9 0.00 0.00 0.00 78 1010.5
20260506015031 54 51 11.3 13.9 0.00 0.00 0.00 78 1010.4
20260506014525 54 40 11.3 14.8 0.00 0.00 0.00 78 1010.4
20260506014109 54 29 12.2 14.8 0.00 0.00 0.00 78 1010.4
20260506013548 54 42 12.2 14.8 0.00 0.00 0.00 77 1010.5
20260506013041 54 23 11.3 14.8 0.00 0.00 0.00 77 1010.5
20260506012529 54 28 12.2 14.8 0.00 0.00 0.00 77 1010.5
20260506012017 54 16 13.0 15.6 0.00 0.00 0.00 77 1010.5
20260506011513 54 18 13.0 15.6 0.00 0.00 0.00 76 1010.5
20260506011100 54 12 13.0 17.4 0.00 0.00 0.00 76 1010.5
20260506010550 54 11 13.9 17.4 0.00 0.00 0.00 76 1010.4
20260506010050 54 16 13.9 18.2 0.00 0.00 0.00 76 1010.5
20260506005529 54 19 13.0 16.5 0.00 0.00 0.00 76 1010.4
20260506005019 54 360 13.9 16.5 0.00 0.00 0.00 76 1010.4
20260506004523 54 15 12.2 15.6 0.00 0.00 0.00 75 1010.5
20260506004101 54 9 11.3 15.6 0.00 0.00 0.00 75 1010.5
20260506003540 54 5 11.3 14.8 0.00 0.00 0.00 75 1010.5
20260506003041 54 5 11.3 14.8 0.00 0.00 0.00 75 1010.5
20260506002520 54 350 12.2 14.8 0.00 0.00 0.00 75 1010.5
20260506002011 54 350 11.3 14.8 0.00 0.00 0.00 75 1010.5
20260506001602 54 355 11.3 14.8 0.00 0.00 0.00 75 1010.5
20260506001052 54 360 12.2 15.6 0.00 0.00 0.00 75 1010.5
20260506000541 54 345 13.0 14.8 0.00 0.00 0.00 75 1010.5
20260506000031 54 355 12.2 15.6 0.00 0.00 0.00 75 1010.5
20260505235520 54 350 13.0 15.6 0.00 0.00 0.00 74 1010.4
20260505235010 54 349 12.2 16.5 0.00 0.00 0.00 74 1010.5
20260505234637 54 355 13.0 16.5 0.00 0.00 0.00 74 1010.4
20260505234052 54 350 13.0 17.4 0.00 0.00 0.00 74 1010.4
20260505233532 54 348 14.8 17.4 0.00 0.00 0.00 74 1010.4
20260505233020 54 355 14.8 18.2 0.00 0.00 0.00 74 1010.5
20260505232510 54 343 14.8 17.4 0.00 0.00 0.00 73 1010.5
20260505232103 54 346 14.8 17.4 0.00 0.00 0.00 73 1010.4
20260505231553 54 355 13.9 17.4 0.00 0.00 0.00 74 1010.4
20260505231042 54 338 14.8 17.4 0.00 0.00 0.00 73 1010.5
20260505230533 54 340 13.9 18.2 0.00 0.00 0.00 73 1010.5
20260505230025 54 338 14.8 20.0 0.00 0.00 0.00 73 1010.6
20260505225514 54 335 15.6 20.0 0.00 0.00 0.00 72 1010.5
20260505225002 54 343 14.8 17.4 0.00 0.00 0.00 73 1010.5
20260505224554 54 346 14.8 18.2 0.00 0.00 0.00 72 1010.6
20260505224043 54 338 14.8 18.2 0.00 0.00 0.00 72 1010.5
20260505223521 54 346 14.8 17.4 0.00 0.00 0.00 72 1010.5
20260505223011 54 333 14.8 17.4 0.00 0.00 0.00 72 1010.5
20260505222503 55 338 14.8 17.4 0.00 0.00 0.00 72 1010.6
20260505222050 55 340 14.8 17.4 0.00 0.00 0.00 72 1010.5
20260505221540 55 339 14.8 16.5 0.00 0.00 0.00 72 1010.6
20260505221030 55 334 13.0 16.5 0.00 0.00 0.00 71 1010.6
20260505220520 55 339 13.9 16.5 0.00 0.00 0.00 71 1010.6
20260505220021 55 333 13.9 15.6 0.00 0.00 0.00 71 1010.7
20260505215602 55 338 13.9 15.6 0.00 0.00 0.00 71 1010.7
20260505215052 55 333 13.0 14.8 0.00 0.00 0.00 71 1010.6
20260505214542 56 332 13.0 15.6 0.00 0.00 0.00 70 1010.6
20260505214035 56 330 12.2 13.9 0.00 0.00 0.00 69 1010.6
20260505213510 56 336 11.3 14.8 0.00 0.00 0.00 70 1010.7
20260505213105 56 342 12.2 16.5 0.00 0.00 0.00 69 1010.7
20260505212552 56 355 13.9 17.4 0.00 0.00 0.00 67 1010.7
20260505212042 56 344 13.9 17.4 0.00 0.00 0.00 68 1010.6
20260505211537 56 344 13.9 16.5 0.00 0.00 0.00 69 1010.6
20260505211022 57 342 11.3 13.9 0.00 0.00 0.00 69 1010.6
20260505210512 57 346 10.4 13.9 0.00 0.00 0.00 69 1010.6
20260505210002 57 350 10.4 13.0 0.00 0.00 0.00 68 1010.6
20260505205556 57 5 10.4 14.8 0.00 0.00 0.00 68 1010.6
20260505205043 57 355 12.2 14.8 0.00 0.00 0.00 68 1010.5
20260505204535 57 355 11.3 13.9 0.00 0.00 0.00 67 1010.5
20260505204012 57 5 10.4 13.9 0.00 0.00 0.00 67 1010.6
20260505203502 57 355 10.4 14.8 0.00 0.00 0.00 67 1010.5
20260505203055 57 360 12.2 15.6 0.00 0.00 0.00 67 1010.5
20260505202543 57 346 13.0 15.6 0.00 0.00 0.00 67 1010.4
20260505202034 57 355 11.3 16.5 0.00 0.00 0.00 66 1010.4
20260505201525 57 355 13.0 17.4 0.00 0.00 0.00 67 1010.4
20260505201013 57 360 14.8 17.4 0.00 0.00 0.00 66 1010.4
20260505200503 57 360 13.9 17.4 0.00 0.00 0.00 67 1010.4
20260505200057 58 360 13.9 17.4 0.00 0.00 0.00 66 1010.3
20260505195543 58 360 13.9 16.5 0.00 0.00 0.00 66 1010.2
20260505195034 58 360 13.0 20.0 0.00 0.00 0.00 66 1010.2
20260505194532 58 5 14.8 20.0 0.00 0.00 0.00 65 1010.2
20260505194004 58 5 16.5 17.4 0.00 0.00 0.00 66 1010.1
20260505193555 58 10 12.2 14.8 0.00 0.00 0.00 67 1010.1
20260505193048 58 360 10.4 13.0 0.00 0.00 0.00 67 1010.1
20260505192534 58 360 10.4 13.0 0.00 0.00 0.00 66 1010.1
20260505192024 58 355 8.7 11.3 0.00 0.00 0.00 68 1010.1
20260505191514 58 355 9.6 13.9 0.00 0.00 0.00 67 1010.1
20260505191004 58 360 11.3 15.6 0.00 0.00 0.00 66 1010.0
20260505190556 58 9 12.2 15.6 0.00 0.00 0.00 66 1009.9
20260505190046 58 5 11.3 14.8 0.00 0.00 0.00 69 1009.9
20260505185536 58 5 12.2 16.5 0.00 0.00 0.00 67 1009.9
20260505185026 58 360 13.0 16.5 0.00 0.00 0.00 66 1009.8
20260505184516 58 360 13.0 14.8 0.00 0.00 0.00 66 1009.8
20260505184108 58 5 13.0 14.8 0.00 0.00 0.00 66 1009.8
20260505183548 58 16 11.3 13.9 0.00 0.00 0.00 69 1009.8
20260505183036 58 10 8.7 11.3 0.00 0.00 0.00 70 1009.9
20260505182526 58 15 9.6 11.3 0.00 0.00 0.00 68 1009.8
20260505182018 58 360 8.7 12.2 0.00 0.00 0.00 67 1009.8
20260505181506 58 355 9.6 12.2 0.00 0.00 0.00 66 1009.7
20260505181100 58 5 9.6 12.2 0.00 0.00 0.00 67 1009.7
20260505180548 58 360 9.6 12.2 0.00 0.00 0.00 67 1009.7
20260505180048 58 5 9.6 12.2 0.00 0.00 0.00 68 1009.8
20260505175528 58 5 9.6 11.3 0.00 0.00 0.00 69 1009.7
20260505175018 58 11 9.6 12.2 0.00 0.00 0.00 69 1009.7
20260505174515 58 13 10.4 11.3 0.00 0.00 0.00 69 1009.8
20260505174059 58 9 9.6 11.3 0.00 0.00 0.00 69 1009.8
20260505173538 58 15 9.6 13.0 0.00 0.00 0.00 69 1009.8
20260505173029 58 5 10.4 13.0 0.00 0.00 0.00 69 1009.8
20260505172518 58 360 9.6 12.2 0.00 0.00 0.00 69 1009.8
20260505172008 58 5 9.6 12.2 0.00 0.00 0.00 68 1009.9
20260505171600 58 9 9.6 11.3 0.00 0.00 0.00 70 1009.9
20260505171050 58 5 9.6 11.3 0.00 0.00 0.00 71 1009.9
20260505170539 58 15 8.7 10.4 0.00 0.00 0.00 73 1010.0
20260505170032 57 12 6.1 7.8 0.00 0.00 0.00 75 1010.0
20260505165523 58 11 6.1 7.8 0.00 0.00 0.00 75 1010.1
20260505165010 58 19 7.0 7.8 0.00 0.00 0.00 74 1010.1
20260505164602 58 19 7.0 8.7 0.00 0.00 0.00 74 1010.0
20260505164055 58 19 7.0 9.6 0.00 0.00 0.00 74 1010.1
20260505163531 58 22 7.8 9.6 0.00 0.00 0.00 74 1010.0
20260505163022 58 20 7.8 10.4 0.00 0.00 0.00 74 1010.0
20260505162510 58 17 9.6 11.3 0.00 0.00 0.00 73 1010.0
20260505162103 58 20 9.6 11.3 0.00 0.00 0.00 72 1010.0
20260505161601 58 32 9.6 12.2 0.00 0.00 0.00 70 1010.0
20260505161042 58 11 9.6 13.9 0.00 0.00 0.00 67 1010.0
20260505160533 58 10 12.2 13.9 0.00 0.00 0.00 67 1009.9
20260505153011 58 5 8.7 12.2 0.00 0.00 0.00 65 1010.1
20260505152500 58 5 9.6 11.3 0.00 0.00 0.00 67 1010.1
20260505152052 58 13 9.6 13.0 0.00 0.00 0.00 68 1010.2
20260505151549 58 9 9.6 15.6 0.00 0.00 0.00 66 1010.2
20260505151035 58 9 13.9 15.6 0.00 0.00 0.00 65 1010.1
20260505150522 58 11 13.0 15.6 0.00 0.00 0.00 66 1010.1
20260505140513 59 13 16.5 19.1 0.00 0.00 0.00 67 1010.1
20260505125034 58 90 3.5 7.0 0.00 0.00 0.00 74 1010.5
20260505124524 58 81 4.3 7.8 0.00 0.00 0.00 75 1010.6
20260505124003 58 81 7.0 7.8 0.00 0.00 0.00 73 1010.6
20260505123556 58 51 5.2 8.7 0.00 0.00 0.00 72 1010.7
20260505123103 58 46 7.0 8.7 0.00 0.00 0.00 72 1010.6
20260505122536 58 40 6.1 8.7 0.00 0.00 0.00 74 1010.6
20260505122025 58 38 7.0 11.3 0.00 0.00 0.00 73 1010.6
20260505121516 58 32 7.8 11.3 0.00 0.00 0.00 73 1010.6
20260505121005 58 19 9.6 13.0 0.00 0.00 0.00 73 1010.6
20260505120557 58 23 10.4 13.0 0.00 0.00 0.00 74 1010.6
20260505120047 57 30 9.6 12.2 0.00 0.00 0.00 76 1010.6
20260505115535 57 38 8.7 11.3 0.00 0.00 0.00 76 1010.7
20260505115025 57 34 7.8 12.2 0.00 0.00 0.00 75 1010.8
20260505114515 57 32 10.4 13.9 0.00 0.00 0.00 75 1010.8
20260505114107 57 40 11.3 14.8 0.00 0.00 0.00 75 1011.0
20260505113548 57 32 11.3 14.8 0.00 0.00 0.00 76 1011.0
20260505113039 57 26 11.3 15.6 0.00 0.00 0.00 75 1011.0
20260505112529 57 36 13.0 16.5 0.00 0.00 0.00 75 1011.0
20260505112020 57 26 13.0 16.5 0.00 0.00 0.00 76 1010.9
20260505111506 56 27 14.8 16.5 0.00 0.00 0.00 76 1011.1
20260505111057 56 33 13.0 15.6 0.00 0.00 0.00 77 1011.0
20260505110547 56 40 13.0 15.6 0.00 0.00 0.00 76 1011.0
20260505102006 56 30 11.3 14.8 0.00 0.00 0.00 79 1011.4
20260505101558 56 39 13.0 14.8 0.00 0.00 0.00 79 1011.4
20260505101048 56 41 11.3 13.0 0.00 0.00 0.00 80 1011.5
20260505100538 56 36 12.2 13.0 0.00 0.00 0.00 80 1011.4
20260505100032 56 38 10.4 13.0 0.00 0.00 0.00 80 1011.4
20260505095515 55 36 11.3 14.8 0.00 0.00 0.00 80 1011.5
20260505095005 55 39 11.3 14.8 0.00 0.00 0.00 80 1011.5
20260505094557 55 43 12.2 14.8 0.00 0.00 0.00 80 1011.5
20260505094047 55 35 13.0 16.5 0.00 0.00 0.00 80 1011.7
20260505093526 55 26 13.9 16.5 0.00 0.00 0.00 80 1011.5
20260505093016 55 27 13.0 15.6 0.00 0.00 0.00 80 1011.5
20260505092508 55 42 12.2 14.8 0.00 0.00 0.00 80 1011.5
20260505092058 55 26 13.0 15.6 0.00 0.00 0.00 80 1011.5
20260505091547 55 40 13.0 15.6 0.00 0.00 0.00 81 1011.6
20260505091037 54 31 13.0 16.5 0.00 0.00 0.00 81 1011.6
20260505090527 54 31 13.9 16.5 0.00 0.00 0.00 81 1011.7
20260505090017 54 22 13.9 16.5 0.00 0.00 0.00 81 1011.5
20260505085507 55 40 13.9 17.4 0.00 0.00 0.00 81 1011.5
20260505085059 55 33 13.0 19.1 0.00 0.00 0.00 81 1011.6
20260505084549 55 22 14.8 18.2 0.00 0.00 0.00 81 1011.5
20260505084038 55 29 16.5 18.2 0.00 0.00 0.00 81 1011.6
20260505083517 54 24 16.5 18.2 0.00 0.00 0.00 80 1011.6
20260505083013 54 22 15.6 18.2 0.00 0.00 0.00 81 1011.5
20260505082559 54 22 15.6 18.2 0.00 0.00 0.00 80 1011.5
20260505082049 54 15 13.9 18.2 0.00 0.00 0.00 80 1011.5
20260505081546 54 28 16.5 19.1 0.00 0.00 0.00 81 1011.4
20260505081029 54 5 15.6 20.0 0.00 0.00 0.00 81 1011.5
20260505080519 54 12 17.4 20.0 0.00 0.00 0.00 81 1011.4
20260505080025 54 13 15.6 19.1 0.00 0.00 0.00 81 1011.4
20260505075557 54 5 14.8 17.4 0.00 0.00 0.00 83 1011.4
20260505075047 54 22 13.9 15.6 0.00 0.00 0.00 83 1011.4
20260505074542 54 14 13.9 15.6 0.00 0.00 0.00 83 1011.4
20260505074027 54 19 13.9 18.2 0.00 0.00 0.00 84 1011.4
20260505073506 54 14 15.6 17.4 0.00 0.00 0.00 84 1011.4
20260505073106 54 13 14.8 17.4 0.00 0.00 0.00 84 1011.3
20260505072547 53 19 14.8 16.5 0.00 0.00 0.00 84 1011.3
20260505072037 53 20 13.0 15.6 0.00 0.00 0.00 86 1011.4
20260505071534 53 24 12.2 13.9 0.00 0.00 0.00 87 1011.4
20260505071018 53 30 11.3 14.8 0.00 0.00 0.00 87 1011.4
20260505070510 53 19 12.2 14.8 0.00 0.00 0.00 88 1011.4
20260505070059 53 18 12.2 14.8 0.00 0.00 0.00 88 1011.5
20260505065549 52 13 12.2 14.8 0.00 0.00 0.00 88 1011.5
20260505065038 53 9 10.4 13.9 0.00 0.00 0.00 89 1011.5
20260505064547 52 23 11.3 13.9 0.00 0.00 0.00 89 1011.5
20260505064007 52 20 11.3 13.9 0.00 0.00 0.00 90 1011.6
20260505063550 52 22 11.3 13.9 0.00 0.00 0.00 89 1011.7
20260505063046 52 15 12.2 14.8 0.00 0.00 0.00 89 1011.7
20260505062530 52 5 13.0 14.8 0.00 0.00 0.00 89 1011.6
20260505062020 52 5 12.2 14.8 0.00 0.00 0.00 89 1011.6
20260505061514 52 12 12.2 17.4 0.00 0.00 0.00 89 1011.6
20260505061101 52 11 13.9 17.4 0.00 0.00 0.00 89 1011.6
20260505060551 52 16 13.9 15.6 0.00 0.00 0.00 89 1011.6
20260505060041 52 5 12.2 15.6 0.00 0.00 0.00 89 1011.7
20260505055531 52 14 12.2 16.5 0.00 0.00 0.00 89 1011.7
20260505055021 52 15 13.0 16.5 0.00 0.00 0.00 89 1011.6
20260505054511 53 21 13.9 16.5 0.00 0.00 0.00 90 1011.5
20260505054103 53 26 13.9 16.5 0.00 0.00 0.00 90 1011.4
20260505053541 53 24 13.9 15.6 0.00 0.00 0.00 89 1011.5
20260505053031 53 24 13.0 16.5 0.00 0.00 0.00 89 1011.5
20260505052521 53 10 13.9 16.5 0.00 0.00 0.00 89 1011.4
20260505052011 53 19 13.9 16.5 0.00 0.00 0.00 89 1011.4